Rodney Mitchell — WCV8372 — position and weather

sailwx.info

Track history (hours):
 
Tides and Currents Weather Stations Pressure Air Temp Water Temp Dewpoint Dewpoint Depression Visibility Wind Speed Wind Dir Waves Ship Positions

Rodney Mitchell

Owner: VINTON CROSBY INC, GOLDEN MEADOW, LA. More information available from US FCC via Universal Licensing System and Coast Guard Vessel Documentation Center.

Last reported at 2014-Oct-21 06:31 UTC. Time now 2014-Oct-21 07:14 UTC.
Position N 29°46' W 095°06'.

; draft 3 m.

Type: Towing. MMSI: 367028860.

Date/timePositionNaut miles runAvg speedWind from/ knotsBaromVisibWave heightAir tempDewpointWater temp
2014-Oct-21 06:31N 29°46' W 095°06'0 0.0
2014-Oct-21 05:29N 29°46' W 095°06'0 0.0
2014-Oct-21 04:22N 29°46' W 095°06'0 0.0
2014-Oct-21 03:31N 29°46' W 095°06'0 0.3
2014-Oct-21 02:33N 29°46' W 095°06'0 0.1
2014-Oct-20 23:09N 29°46' W 095°06'0 0.0
2014-Oct-20 21:32N 29°46' W 095°06'0 0.1
2014-Oct-20 20:31N 29°46' W 095°06'0 0.0
2014-Oct-20 19:31N 29°46' W 095°06'0 0.0
2014-Oct-20 18:17N 29°46' W 095°06'0 0.0
2014-Oct-20 17:26N 29°46' W 095°06'1 1.2
2014-Oct-20 16:33N 29°46' W 095°05'1 0.2
2014-Oct-20 13:07N 29°47' W 095°05'2 0.2
2014-Oct-20 00:33N 29°44' W 095°04'5 4.8
2014-Oct-19 23:33N 29°41' W 094°59'5 5.3
2014-Oct-19 22:33N 29°36' W 094°57'5 5.2
2014-Oct-19 21:33N 29°32' W 094°54'6 5.8
2014-Oct-19 20:32N 29°27' W 094°50'  
2014-Oct-16 23:12N 29°29' W 094°52'4 5.7
2014-Oct-16 22:33N 29°32' W 094°54'5 5.5
2014-Oct-16 21:33N 29°37' W 094°57'6 5.7
2014-Oct-16 20:33N 29°42' W 095°00'5 5.3
2014-Oct-16 19:32N 29°46' W 095°05'2 1.9
2014-Oct-16 18:32N 29°48' W 095°04'0 0.0
2014-Oct-16 16:24N 29°48' W 095°04'0 0.0
2014-Oct-16 15:33N 29°48' W 095°04'0 0.0
2014-Oct-16 14:33N 29°48' W 095°04'0 0.0
2014-Oct-16 13:33N 29°48' W 095°04'0 0.0
2014-Oct-16 12:33N 29°48' W 095°04'0 0.0
2014-Oct-16 11:33N 29°48' W 095°04'0 0.0
2014-Oct-16 10:33N 29°48' W 095°04'0 0.0
2014-Oct-16 09:33N 29°48' W 095°04'0 0.0
2014-Oct-16 08:33N 29°48' W 095°04'0 0.0
2014-Oct-16 05:32N 29°48' W 095°04'0 0.0
2014-Oct-16 04:33N 29°48' W 095°04'3 3.4
2014-Oct-16 03:33N 29°45' W 095°06'6 5.4
2014-Oct-16 02:27N 29°44' W 095°13'2 1.8
2014-Oct-16 01:33N 29°43' W 095°15'0 0.0
2014-Oct-16 00:24N 29°43' W 095°15'0 0.0
2014-Oct-15 23:24N 29°43' W 095°15'0 0.0
2014-Oct-15 14:23N 29°43' W 095°15'2 2.4
2014-Oct-15 13:29N 29°44' W 095°12'4 4.8
2014-Oct-15 12:33N 29°44' W 095°07'2 2.2
2014-Oct-15 11:33N 29°46' W 095°06'1 0.6
2014-Oct-15 10:33N 29°47' W 095°06'0 0.0
2014-Oct-15 09:33N 29°47' W 095°06'0 0.0
2014-Oct-15 08:33N 29°47' W 095°06'0 0.0
2014-Oct-15 07:33N 29°47' W 095°06'0 0.0
2014-Oct-15 06:32N 29°47' W 095°06'0 0.0
2014-Oct-15 05:33N 29°47' W 095°06'0 0.0
2014-Oct-15 04:33N 29°47' W 095°06'0 0.0
2014-Oct-15 03:33N 29°47' W 095°06'0 0.0
2014-Oct-15 02:33N 29°47' W 095°06'0 0.0
2014-Oct-15 01:33N 29°47' W 095°06'0 0.0
2014-Oct-15 00:33N 29°47' W 095°06'0 0.0
2014-Oct-14 23:33N 29°47' W 095°06'0 0.0
2014-Oct-14 22:31N 29°47' W 095°06'0 0.0
2014-Oct-14 21:29N 29°47' W 095°06'0 0.0
2014-Oct-14 20:29N 29°47' W 095°06'0 0.0
2014-Oct-14 19:32N 29°47' W 095°06'1 0.6
2014-Oct-14 18:33N 29°46' W 095°06'0 0.4
2014-Oct-14 17:31N 29°47' W 095°06'0 0.0
2014-Oct-14 16:29N 29°47' W 095°06'0 0.0
2014-Oct-14 15:33N 29°47' W 095°06'0 0.0
2014-Oct-14 14:33N 29°47' W 095°06'0 0.0
2014-Oct-14 13:33N 29°47' W 095°06'0 0.0
2014-Oct-14 12:33N 29°47' W 095°06'0 0.0
2014-Oct-14 11:33N 29°47' W 095°06'0 0.0
2014-Oct-14 10:33N 29°47' W 095°06'0 0.0
2014-Oct-14 09:33N 29°47' W 095°06'0 0.0
2014-Oct-14 08:33N 29°47' W 095°06'0 0.0
2014-Oct-14 07:31N 29°47' W 095°06'0 0.0
2014-Oct-14 06:31N 29°47' W 095°06'0 0.0
2014-Oct-14 05:33N 29°47' W 095°06'0 0.0
2014-Oct-14 04:31N 29°47' W 095°06'0 0.0
2014-Oct-14 03:33N 29°47' W 095°06'0 0.1
2014-Oct-14 02:29N 29°47' W 095°06'0 0.0
2014-Oct-14 01:33N 29°47' W 095°06'0 0.5
2014-Oct-14 00:31N 29°46' W 095°06'1 1.5
2014-Oct-13 23:33N 29°46' W 095°05'4 4.3
2014-Oct-13 22:33N 29°43' W 095°01'4 4.3
2014-Oct-13 21:33N 29°39' W 094°58'5 5.0
2014-Oct-13 20:33N 29°35' W 094°56'5 5.2
2014-Oct-13 19:33N 29°30' W 094°52'4 4.0
2014-Oct-13 18:33N 29°27' W 094°50'  
Track history (hours):
 
Tides and Currents Weather Stations Pressure Air Temp Water Temp Dewpoint Dewpoint Depression Visibility Wind Speed Wind Dir Waves Ship Positions

Rodney Mitchell

Owner: VINTON CROSBY INC, GOLDEN MEADOW, LA. More information available from US FCC via Universal Licensing System and Coast Guard Vessel Documentation Center.

Last reported at 2014-Oct-21 06:31 UTC. Time now 2014-Oct-21 07:14 UTC.
Position N 29°46' W 095°06'.

; draft 3 m.

Type: Towing. MMSI: 367028860.

Date/timePositionNaut miles runAvg speedWind from/ knotsBaromVisibWave heightAir tempDewpointWater temp
2014-Oct-21 06:31N 29°46' W 095°06'0 0.0
2014-Oct-21 05:29N 29°46' W 095°06'0 0.0
2014-Oct-21 04:22N 29°46' W 095°06'0 0.0
2014-Oct-21 03:31N 29°46' W 095°06'0 0.3
2014-Oct-21 02:33N 29°46' W 095°06'0 0.1
2014-Oct-20 23:09N 29°46' W 095°06'0 0.0
2014-Oct-20 21:32N 29°46' W 095°06'0 0.1
2014-Oct-20 20:31N 29°46' W 095°06'0 0.0
2014-Oct-20 19:31N 29°46' W 095°06'0 0.0
2014-Oct-20 18:17N 29°46' W 095°06'0 0.0
2014-Oct-20 17:26N 29°46' W 095°06'1 1.2
2014-Oct-20 16:33N 29°46' W 095°05'1 0.2
2014-Oct-20 13:07N 29°47' W 095°05'2 0.2
2014-Oct-20 00:33N 29°44' W 095°04'5 4.8
2014-Oct-19 23:33N 29°41' W 094°59'5 5.3
2014-Oct-19 22:33N 29°36' W 094°57'5 5.2
2014-Oct-19 21:33N 29°32' W 094°54'6 5.8
2014-Oct-19 20:32N 29°27' W 094°50'  
2014-Oct-16 23:12N 29°29' W 094°52'4 5.7
2014-Oct-16 22:33N 29°32' W 094°54'5 5.5
2014-Oct-16 21:33N 29°37' W 094°57'6 5.7
2014-Oct-16 20:33N 29°42' W 095°00'5 5.3
2014-Oct-16 19:32N 29°46' W 095°05'2 1.9
2014-Oct-16 18:32N 29°48' W 095°04'0 0.0
2014-Oct-16 16:24N 29°48' W 095°04'0 0.0
2014-Oct-16 15:33N 29°48' W 095°04'0 0.0
2014-Oct-16 14:33N 29°48' W 095°04'0 0.0
2014-Oct-16 13:33N 29°48' W 095°04'0 0.0
2014-Oct-16 12:33N 29°48' W 095°04'0 0.0
2014-Oct-16 11:33N 29°48' W 095°04'0 0.0
2014-Oct-16 10:33N 29°48' W 095°04'0 0.0
2014-Oct-16 09:33N 29°48' W 095°04'0 0.0
2014-Oct-16 08:33N 29°48' W 095°04'0 0.0
2014-Oct-16 05:32N 29°48' W 095°04'0 0.0
2014-Oct-16 04:33N 29°48' W 095°04'3 3.4
2014-Oct-16 03:33N 29°45' W 095°06'6 5.4
2014-Oct-16 02:27N 29°44' W 095°13'2 1.8
2014-Oct-16 01:33N 29°43' W 095°15'0 0.0
2014-Oct-16 00:24N 29°43' W 095°15'0 0.0
2014-Oct-15 23:24N 29°43' W 095°15'0 0.0
2014-Oct-15 14:23N 29°43' W 095°15'2 2.4
2014-Oct-15 13:29N 29°44' W 095°12'4 4.8
2014-Oct-15 12:33N 29°44' W 095°07'2 2.2
2014-Oct-15 11:33N 29°46' W 095°06'1 0.6
2014-Oct-15 10:33N 29°47' W 095°06'0 0.0
2014-Oct-15 09:33N 29°47' W 095°06'0 0.0
2014-Oct-15 08:33N 29°47' W 095°06'0 0.0
2014-Oct-15 07:33N 29°47' W 095°06'0 0.0
2014-Oct-15 06:32N 29°47' W 095°06'0 0.0
2014-Oct-15 05:33N 29°47' W 095°06'0 0.0
2014-Oct-15 04:33N 29°47' W 095°06'0 0.0
2014-Oct-15 03:33N 29°47' W 095°06'0 0.0
2014-Oct-15 02:33N 29°47' W 095°06'0 0.0
2014-Oct-15 01:33N 29°47' W 095°06'0 0.0
2014-Oct-15 00:33N 29°47' W 095°06'0 0.0
2014-Oct-14 23:33N 29°47' W 095°06'0 0.0
2014-Oct-14 22:31N 29°47' W 095°06'0 0.0
2014-Oct-14 21:29N 29°47' W 095°06'0 0.0
2014-Oct-14 20:29N 29°47' W 095°06'0 0.0
2014-Oct-14 19:32N 29°47' W 095°06'1 0.6
2014-Oct-14 18:33N 29°46' W 095°06'0 0.4
2014-Oct-14 17:31N 29°47' W 095°06'0 0.0
2014-Oct-14 16:29N 29°47' W 095°06'0 0.0
2014-Oct-14 15:33N 29°47' W 095°06'0 0.0
2014-Oct-14 14:33N 29°47' W 095°06'0 0.0
2014-Oct-14 13:33N 29°47' W 095°06'0 0.0
2014-Oct-14 12:33N 29°47' W 095°06'0 0.0
2014-Oct-14 11:33N 29°47' W 095°06'0 0.0
2014-Oct-14 10:33N 29°47' W 095°06'0 0.0
2014-Oct-14 09:33N 29°47' W 095°06'0 0.0
2014-Oct-14 08:33N 29°47' W 095°06'0 0.0
2014-Oct-14 07:31N 29°47' W 095°06'0 0.0
2014-Oct-14 06:31N 29°47' W 095°06'0 0.0
2014-Oct-14 05:33N 29°47' W 095°06'0 0.0
2014-Oct-14 04:31N 29°47' W 095°06'0 0.0
2014-Oct-14 03:33N 29°47' W 095°06'0 0.1
2014-Oct-14 02:29N 29°47' W 095°06'0 0.0
2014-Oct-14 01:33N 29°47' W 095°06'0 0.5
2014-Oct-14 00:31N 29°46' W 095°06'1 1.5
2014-Oct-13 23:33N 29°46' W 095°05'4 4.3
2014-Oct-13 22:33N 29°43' W 095°01'4 4.3
2014-Oct-13 21:33N 29°39' W 094°58'5 5.0
2014-Oct-13 20:33N 29°35' W 094°56'5 5.2
2014-Oct-13 19:33N 29°30' W 094°52'4 4.0
2014-Oct-13 18:33N 29°27' W 094°50'  

Dump ship's entire track history